Simultaneous Nadir Overpasses (SNOs) Predictions

Prediction of SNOs between AQUA and LANDSAT-8 Satellite Orbit:

Table of predicted SNOs for the next 14.0 days since TLE Epoch: 7/24/2024
Index Date (AQUA) Time (AQUA) Lat,Lon (AQUA) SZA (AQUA ) Date (LANDSAT-8) Time (LANDSAT-8) Lat,Lon (LANDSAT-8) SZA (LANDSAT-8 ) Distance(km) Time Diff (sec)
1 08/06/2024 16:45:07 73.32, -66.81 56.83 08/06/2024 16:44:01 73.29, -69.40 56.78 82.84 66
2 08/06/2024 17:34:33 -73.57, 100.31 122.92 08/06/2024 17:33:24 -73.54, 98.76 122.97 48.99 69
3 08/06/2024 18:23:57 73.68, -92.27 57.20 08/06/2024 18:22:47 73.66, -93.35 57.17 33.81 70
4 08/06/2024 19:13:23 -73.93, 74.83 122.55 08/06/2024 19:12:10 -73.90, 74.83 122.58 3.30 73
5 08/06/2024 20:02:45 73.94,-117.53 57.47 08/06/2024 20:01:35 73.92,-117.50 57.45 2.62 70
6 08/06/2024 20:52:06 -73.93, 50.15 122.53 08/06/2024 20:51:02 -73.95, 50.22 122.51 3.27 64
7 08/06/2024 21:41:28 73.94,-142.20 57.49 08/06/2024 21:40:28 73.92,-142.22 57.47 2.47 60
8 08/06/2024 22:30:49 -73.93, 25.48 122.51 08/06/2024 22:29:55 -73.95, 25.50 122.49 2.64 54
9 08/06/2024 23:20:11 73.94,-166.87 57.51 08/06/2024 23:19:21 73.92,-166.94 57.49 3.12 50
10 08/07/2024 00:09:32 -73.93, 0.81 122.49 08/07/2024 00:08:48 -73.95, 0.78 122.47 2.75 44
11 08/07/2024 00:58:54 73.94, 168.45 57.53 08/07/2024 00:58:13 73.97, 168.45 57.56 3.42 41
12 08/07/2024 01:48:16 -73.98, -23.99 122.42 08/07/2024 01:47:41 -73.95, -23.95 122.45 3.35 35
13 08/07/2024 02:37:38 73.99, 143.66 57.60 08/07/2024 02:37:06 73.97, 143.73 57.58 3.23 32
14 08/07/2024 03:26:58 -73.98, -48.66 122.41 08/07/2024 03:26:33 -73.95, -48.67 122.43 3.07 25
15 08/07/2024 04:16:20 73.98, 118.98 57.62 08/07/2024 04:15:58 73.96, 119.01 57.59 2.45 22



Historial Predications of SNOs between AQUA and LANDSAT-8
